Location: Civís
(42.4648°N, 1.4232°E)
Time: 17:43:08
(UTC+00:00)

Cosmos 1441 Rocket - Pass Details

Date: 19 November 2025
Orbit: 425 x 449 km, 81.1° (Epoch: 04 December)

Event Time Altitude Azimuth Distance (km) Brightness Sun altitude
Rises 16:56:57 0° 340° (NNW) 2,408 6.6 -5.6°
Reaches altitude 10° 16:59:07 10° 331° (NNW) 1,540 5.7 -6.0°
Maximum altitude 17:02:09 32° 266° (W) 762 4.9 -6.5°
Drops below altitude 10° 17:05:11 10° 201° (SSW) 1,540 6.2 -7.0°
Sets 17:07:22 0° 191° (S) 2,409 7.1 -7.4°
